NOAA 16 DEB, 42419

Orbit data source: Space-Track

NOAA 16 DEB, 42419 is space debris in SSO originally from a launch on Thu, 21 Sep 2000 UTC launched from the Air Force Western Test Range (AFWTR). Debris objects in space refer to the collection of defunct objects orbiting the Earth. Examples of debris include non-operational satellites, rocket bodies, and fragments generated from explosions, collisions, or faulty payload assembly.

Loading next visibility...
Identifier
42419, 2000-055TP
Orbit
SSO
Country
Flag of USUS
Related business
Manufacturer
Unknown
Mission
Spacecraft
Bus & Motor
Unknown
Mass
Unknown
Launch date (UTC)
2000-09-21 (25 years ago)
Launch vehicle
Unknown
Launch site
Air Force Western Test Range (AFWTR)
Object type
Payload
Rocket body
Debris
Shape & HBR
Unknown shape, 0.1 m
Radar Cross Section
Small (<0.1 m²)

Expand to show TLE details & history
Last TLE update: 1 day ago

TLE from 1 day ago
0 NOAA 16 DEB
1 42419U 00055TP  26036.27690369  .00038047  00000-0  80824-2 0  9995
2 42419  98.8205 160.0855 0011548 351.5415   8.5586 14.58884153513606
Epoch: 2026-02-05T06:38Z
TLE epoch observation values (Epoch: 2026-02-05T06:38:44.478Z)
Latitude
-0.00005°
Longitude
-75.03126°
Altitude
691.662 km
Speed
7.515 km/s
True Right ascension
10h 40m 20s
True Declination
0° 00' 00"
Sunlit
Object was in full shadow at epoch
Visualization orbit readout
Latitude
Unknown
Longitude
Unknown
Altitude
Unknown
Speed
Unknown
Apparent Right ascension
Unknown
Apparent Declination
Unknown
Sunlit
N/A
Visualization observer readout
Local Sidereal Time
13:05:39
Azimuth
Unknown
Elevation
Unknown
Doppler factor
Unknown
Orbital elements
Apogee altitude
702.058 km
Perigee altitude
685.725 km
Semi-major axis
7,072.029 km
Eccentricity
0.00115
Inclination
98.8205°
RAAN
160.0855°
Arg. of periapsis
351.5415°
True anomaly
8.57832°
Mean anomaly
8.5586°
Eccentric anomaly
8.56846°
Mean motion
3.64945 °/min
Orbital period
98.65 mins
BSTAR
0.0080824
Loading maneuver chart data...
Computing Atmospheric mass density...
Loading historical data...
Loading historical data...
Loading historical data...
Loading historical data...
Loading historical data...
Loading historical data...
Loading historical data...

Documentation

Showing up to 5 results
|